User: anonymous   Login
Location: Unspecified
(0.0000°N, 0.0000°E)
Time: 07:34:28
(UTC+00:00)
Language:

ELEKTRO-L - Orbit

View from above orbital plane
View from above orbital plane
View from above satellite
View from above satellite

Ground track
Ground track

The orbit data is extracted from the following two-line orbital elements,

1 37344U 11001A   16178.10928269 -.00000101  00000-0  00000+0 0  9996
2 37344   1.7257  79.3159 0003774 241.2678  69.1871  1.00270926 19931
Epoch (UTC): 26 June 2016 02:37:22
Eccentricity: 0.0003774
inclination: 1.7257°
perigee height: 35770 km
apogee height: 35802 km
right ascension of ascending node: 79.3159°
argument of perigee: 241.2678°
revolutions per day: 1.00270926
mean anomaly at epoch: 69.1871°
orbit number at epoch: 1993

The dashed part of the orbit path shows where the satellite is in the earth's shadow,  

DLR